Weather History for Saranac Lake, NY

Change the Weather History Date:

Friday, February 8, 2013

  Actual Average Record
Temperature  
Mean Temperature 13 °F 14 °F  
Max Temperature 19 °F 27 °F 47 °F (1965)
Min Temperature 6 °F 1 °F -27 °F (2000)
Degree Days  
Heating Degree Days 52 51  
Month to date heating degree days 481 414  
Since 1 July heating degree days 5390 5716  
Moisture  
Dew Point 11 °F    
Average Humidity 84    
Maximum Humidity 92    
Minimum Humidity 76    
Precipitation  
Precipitation 0.26 in 0.06 in 0.90 in (1951)
Month to date precipitation 0.28 0.47  
Year to date precipitation 1.51 2.60  
Sea Level Pressure  
Sea Level Pressure 29.99 in    
Wind  
Wind Speed 10 mph (NE)    
Max Wind Speed 17 mph    
Max Gust Speed 22 mph    
Visibility 1 miles    
Events Fog , Snow    
T = Trace of Precipitation, MM = Missing Value Source: NWS Daily Summary

Daily Weather History Graph

Daily Weather History Graph

Search for Another Location

Airport:

Trip Planner

Search our weather history database for the weather conditions in past years. The results will help you decide how hot, cold, wet, or windy it might be!

Date:

Astronomy

Feb. 08, 2013 Rise Set
Actual Time 7:06 AM EST 5:16 PM EST
Civil Twilight 6:35 AM EST 5:46 PM EST
Nautical Twilight 6:01 AM EST 6:21 PM EST
Astronomical Twilight 5:27 AM EST 6:54 PM EST
Moon 5:34 AM EST (2/8) 3:45 PM EST (2/8)
Length of Visible Light 11h 10m
Length of Day
10h 10m
Waning Crescent, 3% of the Moon is Illuminated
Feb 8
Waning Crescent
Feb 10
New
Feb 17
First Quarter
Feb 25
Full
Mar 4
Last Quarter

Hourly Weather History & Observations

Time (EST) Temp. Windchill Dew Point Humidity Pressure Visibility Wind Dir Wind Speed Gust Speed Precip Events Conditions
12:51 AM 6.1 °F -6.8 °F -0.0 °F 76% 30.32 in 7.0 mi NE 8.1 mph - N/A   Overcast
1:10 AM 6.8 °F -5.9 °F 1.4 °F 79% 30.19 in 2.5 mi NE 8.1 mph - 0.00 in Snow Light Snow
1:51 AM 6.1 °F -7.8 °F 1.9 °F 83% 30.28 in 1.5 mi NE 9.2 mph - 0.00 in Snow Light Snow
2:45 AM 6.8 °F -5.9 °F 3.2 °F 85% 30.15 in 0.8 mi NE 8.1 mph - 0.01 in Snow Light Snow
2:51 AM 7.0 °F -6.6 °F 3.0 °F 84% 30.25 in 0.8 mi NE 9.2 mph - 0.01 in Snow Light Snow
3:01 AM 6.8 °F -5.9 °F 3.2 °F 85% 30.14 in 0.5 mi NE 8.1 mph - 0.00 in Fog , Snow Snow
3:30 AM 6.8 °F -8.6 °F 3.2 °F 85% 30.11 in 0.8 mi ENE 11.5 mph - 0.01 in Snow Light Snow
3:41 AM 6.8 °F -7.8 °F 3.2 °F 85% 30.11 in 1.0 mi ENE 10.4 mph - 0.01 in Snow Light Snow
3:51 AM 8.1 °F -5.3 °F 3.9 °F 83% 30.21 in 0.5 mi ENE 9.2 mph - 0.02 in Fog , Snow Snow
4:06 AM 8.6 °F -5.5 °F 3.2 °F 79% 30.10 in 0.5 mi ENE 10.4 mph - 0.00 in Fog , Snow Snow
4:29 AM 8.6 °F -5.5 °F 5.0 °F 85% 30.09 in 0.8 mi NE 10.4 mph - 0.01 in Snow Light Snow
4:51 AM 8.1 °F -6.2 °F 3.9 °F 83% 30.19 in 0.8 mi ENE 10.4 mph - 0.02 in Snow Light Snow
5:17 AM 8.6 °F -4.7 °F 5.0 °F 85% 30.08 in 0.8 mi ENE 9.2 mph - 0.01 in Snow Light Snow
5:51 AM 9.0 °F -5.9 °F 5.0 °F 84% 30.18 in 0.8 mi ENE 11.5 mph - 0.03 in Snow Light Snow
6:06 AM 8.6 °F -5.5 °F 5.0 °F 85% 30.07 in 1.0 mi ENE 10.4 mph - 0.00 in Snow Light Snow
6:51 AM 9.0 °F -3.2 °F 5.0 °F 84% 30.17 in 0.8 mi ENE 8.1 mph - 0.01 in Snow Light Snow
6:55 AM 8.6 °F -4.7 °F 6.8 °F 92% 30.06 in 1.0 mi ENE 9.2 mph - 0.01 in Snow Light Snow
7:31 AM 10.4 °F -3.3 °F 6.8 °F 85% 30.05 in 0.8 mi ENE 10.4 mph - 0.01 in Snow Light Snow
7:42 AM 10.4 °F -2.4 °F 6.8 °F 85% 30.05 in 0.2 mi ENE 9.2 mph - 0.02 in Fog , Snow Snow
7:51 AM 10.9 °F -1.8 °F 8.1 °F 88% 30.16 in 0.2 mi NE 9.2 mph - 0.02 in Fog , Snow Snow
8:06 AM 10.4 °F -3.3 °F 8.6 °F 92% 30.04 in 0.2 mi NE 10.4 mph - 0.01 in Fog , Snow Snow
8:34 AM 12.2 °F -0.2 °F 8.6 °F 85% 30.03 in 0.2 mi ENE 9.2 mph - 0.02 in Fog , Snow Snow
8:49 AM 12.2 °F -0.2 °F 8.6 °F 85% 30.03 in 0.5 mi ENE 9.2 mph - 0.03 in Fog , Snow Snow
8:50 AM 12.9 °F -0.2 °F 9.0 °F 84% 30.14 in 0.5 mi ENE 10.4 mph - 0.03 in Fog , Snow Snow
9:51 AM 12.9 °F -0.2 °F 10.0 °F 88% 30.13 in 0.5 mi ENE 10.4 mph - 0.01 in Fog , Snow Snow
10:51 AM 14.0 °F 2.0 °F 10.9 °F 88% 30.11 in 0.5 mi ENE 9.2 mph - 0.01 in Fog , Snow Snow
11:51 AM 16.0 °F 4.4 °F 12.0 °F 84% 30.07 in 0.5 mi ENE 9.2 mph - 0.01 in Fog , Snow Snow
11:58 AM 15.8 °F 5.1 °F 12.2 °F 86% 29.96 in 0.8 mi ENE 8.1 mph - 0.00 in Snow Light Snow
12:22 PM 15.8 °F 2.7 °F 12.2 °F 86% 29.94 in 0.2 mi ENE 11.5 mph - 0.01 in Fog , Snow Snow
12:51 PM 17.1 °F 4.3 °F 12.9 °F 84% 30.03 in 0.5 mi ENE 11.5 mph - 0.01 in Fog , Snow Snow
1:51 PM 17.1 °F 3.6 °F 12.9 °F 84% 30.00 in 0.5 mi ENE 12.7 mph - 0.01 in Fog , Snow Snow
2:41 PM 17.6 °F 5.7 °F 15.8 °F 93% 29.87 in 0.2 mi ENE 10.4 mph - 0.01 in Fog , Snow Heavy Snow
2:51 PM 18.0 °F 6.9 °F 15.1 °F 88% 29.96 in 0.2 mi ENE 9.2 mph - 0.01 in Fog , Snow Snow
3:12 PM 17.6 °F 6.4 °F 15.8 °F 93% 29.85 in 0.5 mi ENE 9.2 mph - 0.01 in Fog , Snow Snow
3:25 PM 17.6 °F 5.7 °F 15.8 °F 93% 29.85 in 0.5 mi ENE 10.4 mph - 0.01 in Fog , Snow Light Snow
3:51 PM 18.0 °F 9.8 °F 15.1 °F 88% 29.94 in 0.8 mi ENE 5.8 mph - 0.01 in Snow Light Snow
4:22 PM 19.4 °F 7.9 °F 15.8 °F 86% 29.83 in 0.5 mi ENE 10.4 mph - 0.00 in Fog , Snow Snow
4:51 PM 18.0 °F 6.1 °F 15.1 °F 88% 29.92 in 0.5 mi ENE 10.4 mph - 0.01 in Fog , Snow Snow
4:59 PM 17.6 °F 4.3 °F 15.8 °F 93% 29.82 in 0.8 mi ENE 12.7 mph - 0.00 in Snow Light Snow
5:11 PM 17.6 °F 5.0 °F 15.8 °F 93% 29.82 in 1.2 mi ENE 11.5 mph - 0.00 in Snow Light Snow
5:18 PM 17.6 °F 4.3 °F 15.8 °F 93% 29.82 in 2.0 mi ENE 12.7 mph - 0.00 in Snow Light Snow
5:29 PM 17.6 °F 3.2 °F 15.8 °F 93% 29.82 in 4.0 mi ENE 15.0 mph - 0.00 in   Overcast
5:47 PM 17.6 °F 3.7 °F 15.8 °F 93% 29.82 in 2.5 mi ENE 13.8 mph - 0.00 in Snow Light Snow
5:51 PM 18.0 °F 4.2 °F 15.1 °F 88% 29.92 in 2.5 mi ENE 13.8 mph - 0.00 in Snow Light Snow
6:00 PM 19.4 °F 6.6 °F 15.8 °F 86% 29.83 in 3.0 mi ENE 12.7 mph - 0.00 in Snow Light Snow
6:10 PM 19.4 °F 5.0 °F 15.8 °F 86% 29.83 in 1.8 mi NE 16.1 mph - 0.00 in Snow Light Snow
6:20 PM 17.6 °F 3.2 °F 15.8 °F 93% 29.83 in 1.2 mi ENE 15.0 mph - 0.00 in Snow Light Snow
6:36 PM 17.6 °F 3.7 °F 15.8 °F 93% 29.83 in 0.8 mi ENE 13.8 mph - 0.00 in Snow Light Snow
6:43 PM 17.6 °F 3.2 °F 15.8 °F 93% 29.83 in 1.0 mi ENE 15.0 mph - 0.00 in Snow Light Snow
6:51 PM 18.0 °F 2.6 °F 15.1 °F 88% 29.92 in 1.0 mi NE 17.3 mph - 0.00 in Snow Light Snow
7:00 PM 17.6 °F 3.7 °F 15.8 °F 93% 29.83 in 0.8 mi NE 13.8 mph - 0.00 in Snow Light Snow
7:51 PM 18.0 °F 4.2 °F 15.1 °F 88% 29.94 in 0.5 mi NE 13.8 mph - 0.01 in Fog , Snow Snow
8:30 PM 17.6 °F 3.7 °F 14.0 °F 86% 29.85 in 0.8 mi NE 13.8 mph - 0.01 in Snow Light Snow
8:48 PM 17.6 °F 3.2 °F 14.0 °F 86% 29.85 in 1.0 mi NE 15.0 mph - 0.01 in Snow Light Snow
8:51 PM 17.1 °F 4.3 °F 12.9 °F 84% 29.95 in 1.0 mi NE 11.5 mph - 0.01 in Snow Light Snow
9:27 PM 17.6 °F 5.7 °F 12.2 °F 79% 29.87 in 0.8 mi NE 10.4 mph - 0.00 in Snow Light Snow
9:51 PM 16.0 °F 7.4 °F 12.9 °F 88% 29.96 in 1.0 mi NNE 5.8 mph - 0.00 in Snow Light Snow
10:02 PM 15.8 °F 7.2 °F 14.0 °F 93% 29.87 in 0.8 mi NNE 5.8 mph - 0.01 in Snow Light Snow
10:17 PM 15.8 °F 8.6 °F 12.2 °F 86% 29.87 in 1.0 mi North 4.6 mph - 0.02 in Snow Light Snow
10:33 PM 15.8 °F 5.1 °F 12.2 °F 86% 29.86 in 1.5 mi NNE 8.1 mph - 0.02 in Snow Light Snow
10:51 PM 15.1 °F 5.2 °F 12.0 °F 88% 29.96 in 1.8 mi North 6.9 mph - 0.02 in Snow Light Snow
10:59 PM 15.8 °F 6.1 °F 10.4 °F 79% 29.87 in 2.5 mi North 6.9 mph - 0.00 in Snow Light Snow
11:09 PM 14.0 °F 2.9 °F 10.4 °F 86% 29.87 in 3.0 mi North 8.1 mph - 0.00 in Snow Light Snow
11:39 PM 12.2 °F 0.7 °F 8.6 °F 85% 29.86 in 2.5 mi NNE 8.1 mph - 0.00 in Snow Light Snow
11:51 PM 12.0 °F -0.4 °F 9.0 °F 88% 29.96 in 2.0 mi NE 9.2 mph - 0.00 in Snow Light Snow